Regional Weather Roundup
Issued by NWS

Home | Current Version | Previous Version | Graphics & Text | Print | Product List | Glossary On
Versions: 1 2 3 4 5 6 7 8 9 10 11 12 13 14 15 16 17 18 19 20 21 22 23 24 25 26 27 28 29 30 31 32 33 34 35 36 37 38 39 40 41 42 43 44 45 46 47 48 49 50
000
ASUS45 KBOU 292107
RWRCO

WEATHER ROUNDUP FOR COLORADO
NATIONAL WEATHER SERVICE DENVER/BOULDER CO
300 PM MDT SAT AUG 29 2015

NOTE: "FAIR" INDICATES FEW OR NO CLOUDS BELOW 12000 FEET WITH NO
SIGNIFICANT WEATHER AND/OR OBSTRUCTIONS TO VISIBILITY.

COZ001>005-013-030-031-292200-
...NORTHWEST COLORADO...

CITY           SKY/WX    TMP DP  RH WIND       PRES   REMARKS
CRAIG          FAIR      87  31  13 SE6       30.23F
HAYDEN         NOT AVBL
MEEKER         FAIR      87  34  15 SW8       30.24F
MOUNT WERNER   NOT AVBL
STEAMBOAT SPGS FAIR      81  29  15 W7        30.29F
WALDEN         FAIR      73  23  15 SE5       30.38F
$$

COZ006>008-011-292200-
...WEST CENTRAL VALLEYS...

CITY           SKY/WX    TMP DP  RH WIND       PRES   REMARKS
GRAND JUNCTION FAIR      89  43  20 W7        30.14F
MONTROSE       FAIR      88  40  18 N8        30.22F
EAGLE          MOSUNNY   82  36  18 W8        30.27F
RIFLE          FAIR      88  41  19 NW7       30.19F
DELTA          FAIR      91  37  15 CALM      30.18F
NUCLA          FAIR      90  30  12 SW10G21   30.27F
$$

COZ017>023-064>068-292200-
...SOUTHWEST COLORADO...

CITY           SKY/WX    TMP DP  RH WIND       PRES   REMARKS
DURANGO        FAIR      82  40  22 VRB5      30.32F
CORTEZ         FAIR      89  40  17 SW10G18   30.24F
PAGOSA SPRINGS FAIR      79  38  23 NW10G18   30.40F
TELLURIDE      CLOUDY    73  35  25 SW9       30.51S
WOLF CREEK PAS FAIR      57  37  47 SW14G21   30.74F
$$

COZ009-010-012-014-032>034-037-058>063-292200-
...CENTRAL COLORADO...

CITY           SKY/WX    TMP DP  RH WIND       PRES   REMARKS
ASPEN          FAIR      78  40  25 NW8       30.36F
BUENA VISTA    FAIR      78  35  21 S13       30.38S
COPPER MTN     FAIR      63  32  31 W15G21    30.71F
BERTHOUD PASS  PTSUNNY   54  41  62 NE6       30.76S
COTTONWOOD PAS FAIR      70  34  26 SE14G24   30.53F
GUNNISON       FAIR      81  34  18 SW10      30.38F
KREMMLING      FAIR      82  18   9 S8G16     30.34F
LEADVILLE      FAIR      71  32  23 NW12G21   30.52F
SALIDA         PTSUNNY   82  36  19 SW12G17   30.41F
SUNLIGHT       FAIR      66  45  45 CALM      30.64F
WILKERSON PASS FAIR      70  30  23 SW3       30.67F
$$

COZ069>075-292200-
...SAN LUIS VALLEY/SANGRE DE CRISTO MOUNTAINS...

CITY           SKY/WX    TMP DP  RH WIND       PRES   REMARKS
ALAMOSA        FAIR      80  38  22 SW9       30.37F
LA VETA PASS   PTSUNNY   64  37  36 E8        30.60F
SAGUACHE       PTSUNNY   73  41  31 NW15G22   30.41R
$$

COZ035-036-038>040-292200-
...NORTHERN COLORADO FRONT RANGE...

CITY           SKY/WX    TMP DP  RH WIND       PRES   REMARKS
DENVER INTL AP FAIR      89  37  16 E10G20    30.17F
DMNS CITY PARK   N/A     89  35  14 E5G15     30.15F
AURORA         MOSUNNY   88  35  15 CALM      30.19F
FRONT RANGE AP MOSUNNY   88  36  15 E9G17     30.19F
ERIE MUNI ARPT FAIR      90  32  12 CALM      30.14F
BOULDER MUN AP FAIR      90  37  15 SE6       30.15F
CENTENNIAL     FAIR      86  39  19 CALM      30.20F
BROOMFIELD     MOSUNNY   90  34  13 S3        30.19F
FORT COLLINS   FAIR      90  45  20 CALM      30.13F
LONGMONT       FAIR      92  40  16 SE5       30.15F
$$

COZ041-046-047-076>085-087-088-292200-
...PIKES PEAK/PALMER DIVIDE AND SOUTHERN FOOTHILLS...

CITY           SKY/WX    TMP DP  RH WIND       PRES   REMARKS
COLO. SPRINGS  FAIR      83  42  23 SE13G28   30.28F
A. F. ACADEMY  FAIR      81  43  26 SE17G23   30.28F
ELLICOTT       FAIR     N/A N/A N/A S13G20    30.28F
FALCON         FAIR      78  44  29 MISG      30.34F
FORT CARSON    FAIR      84  46  27 SE18      30.24F
LIMON          FAIR      82  44  26 S12       30.23F
MONUMENT HILL  FAIR      79  41  25 S16G23    30.32F
TRINIDAD       FAIR      85  36  17 VRB5      30.25F
$$

COZ042>045-048>051-090-091-292200-
...NORTHEAST COLORADO...

CITY           SKY/WX    TMP DP  RH WIND       PRES   REMARKS
GREELEY ARPT   FAIR      90  45  20 SE7       30.14F
AKRON          FAIR      90  38  16 SE13      30.16F
BURLINGTON     FAIR      86  44  23 S8        30.17F
WRAY           FAIR      95  37  13 SE13      30.11F
STERLING       FAIR      91  41  17 S8        30.10F
HOLYOKE        FAIR      95  50  21 S8        30.11F
FORT MORGAN    FAIR      91  34  13 SE9       30.14F
$$

COZ086-089-092>099-292200-
...SOUTHEAST COLORADO...

CITY           SKY/WX    TMP DP  RH WIND       PRES   REMARKS
PUEBLO         FAIR      90  44  20 SE12G22   30.16F
LA JUNTA       FAIR      89  41  18 E5        30.16F
LAMAR          FAIR      89  42  19 CALM      30.13F HAZE
SPRINGFIELD    NOT AVBL
$$



USA.gov is the U.S. government's official web portal to all federal, state and local government web resources and services.